Weather History for Spokane, WA

Change the Weather History Date:

Saturday, June 15, 2013

  Actual Average Record
Temperature  
Mean Temperature 62 °F 62 °F  
Max Temperature 78 °F 73 °F 93 °F (1999)
Min Temperature 46 °F 50 °F 38 °F (2001)
Degree Days  
Heating Degree Days 3 5  
Month to date heating degree days 68 85  
Since 1 June heating degree days 68 85  
Since 1 July heating degree days 6168 6542  
Cooling Degree Days 0 1  
Month to date cooling degree days 13 15  
Year to date cooling degree days 43 29  
Since 1 June cooling degree days 13 15  
Growing Degree Days 12 (Base 50)    
Moisture  
Dew Point 36 °F    
Average Humidity 47    
Maximum Humidity 76    
Minimum Humidity 18    
Precipitation  
Precipitation 0.00 in 0.05 in 0.69 in (1897)
Month to date precipitation 0.11 0.74  
Year to date precipitation 5.04 8.37  
Snow  
Snow 0.00 in 0.00 in 0.00 in (2002)
Month to date snowfall 0.0 0.0  
Since 1 June snowfall 0.0 0.0  
Since 1 July snowfall 43.5 44.9  
Snow Depth 0.00 in    
Sea Level Pressure  
Sea Level Pressure 29.99 in    
Wind  
Wind Speed 4 mph (ENE)    
Max Wind Speed 13 mph    
Max Gust Speed 18 mph    
Visibility 10 miles    
Events      
T = Trace of Precipitation, MM = Missing Value Source: NWS Daily Summary

Daily Weather History Graph

Daily Weather History Graph

Search for Another Location

Airport:

Trip Planner

Search our weather history database for the weather conditions in past years. The results will help you decide how hot, cold, wet, or windy it might be!

Date:

Astronomy

Jun. 15, 2013 Rise Set
Actual Time 4:51 AM PDT 8:49 PM PDT
Civil Twilight 4:11 AM PDT 9:30 PM PDT
Nautical Twilight 3:14 AM PDT 10:26 PM PDT
Astronomical Twilight 1:45 AM PDT 11:56 PM PDT
Moon 11:57 AM PDT (6/15) 12:03 AM PDT (6/15)
Length of Visible Light 17h 19m
Length of Day
15h 58m
Waxing Crescent, 40% of the Moon is Illuminated
Jun 15
Waxing Crescent
Jun 16
First Quarter
Jun 23
Full
Jun 29
Last Quarter
Jul 8
New

Hourly Weather History & Observations

Time (PDT) Temp. Dew Point Humidity Pressure Visibility Wind Dir Wind Speed Gust Speed Precip Events Conditions
12:53 AM 54.0 °F 35.1 °F 49% 30.04 in 10.0 mi SE 5.8 mph - N/A   Clear
1:53 AM 52.0 °F 36.0 °F 54% 30.04 in 10.0 mi Calm Calm - N/A   Clear
2:53 AM 50.0 °F 36.0 °F 59% 30.04 in 10.0 mi SE 3.5 mph - N/A   Clear
3:53 AM 48.9 °F 37.0 °F 64% 30.04 in 10.0 mi ENE 4.6 mph - N/A   Partly Cloudy
4:53 AM 46.9 °F 39.0 °F 74% 30.04 in 10.0 mi NE 3.5 mph - N/A   Scattered Clouds
5:53 AM 46.9 °F 39.9 °F 77% 30.04 in 10.0 mi ENE 4.6 mph - N/A   Partly Cloudy
6:53 AM 51.1 °F 41.0 °F 68% 30.04 in 10.0 mi NE 8.1 mph - N/A   Partly Cloudy
7:53 AM 55.0 °F 39.9 °F 57% 30.03 in 10.0 mi NE 5.8 mph - N/A   Partly Cloudy
8:53 AM 59.0 °F 39.9 °F 49% 30.02 in 10.0 mi NE 9.2 mph - N/A   Scattered Clouds
9:53 AM 64.0 °F 39.9 °F 41% 30.01 in 10.0 mi NE 6.9 mph - N/A   Scattered Clouds
10:53 AM 68.0 °F 39.0 °F 35% 30.00 in 10.0 mi NE 6.9 mph - N/A   Scattered Clouds
11:53 AM 71.1 °F 39.0 °F 31% 29.99 in 10.0 mi Variable 4.6 mph - N/A   Scattered Clouds
12:53 PM 73.0 °F 35.1 °F 25% 29.98 in 10.0 mi Calm Calm - N/A   Scattered Clouds
1:53 PM 75.0 °F 33.1 °F 22% 29.96 in 10.0 mi South 5.8 mph - N/A   Mostly Cloudy
2:53 PM 77.0 °F 32.0 °F 19% 29.96 in 10.0 mi Variable 3.5 mph - N/A   Mostly Cloudy
3:53 PM 75.9 °F 33.1 °F 21% 29.95 in 10.0 mi Calm Calm - N/A   Mostly Cloudy
4:53 PM 77.0 °F 32.0 °F 19% 29.94 in 10.0 mi Variable 3.5 mph - N/A   Mostly Cloudy
5:53 PM 77.0 °F 30.9 °F 19% 29.94 in 10.0 mi WSW 6.9 mph - N/A   Mostly Cloudy
6:53 PM 75.9 °F 32.0 °F 20% 29.94 in 10.0 mi NW 4.6 mph - N/A   Mostly Cloudy
7:53 PM 73.0 °F 35.1 °F 25% 29.95 in 10.0 mi NNE 10.4 mph - N/A   Overcast
8:53 PM 71.1 °F 35.1 °F 27% 29.95 in 10.0 mi NE 3.5 mph - N/A   Overcast
9:53 PM 69.1 °F 35.1 °F 29% 29.96 in 10.0 mi Calm Calm - N/A   Overcast
10:53 PM 66.9 °F 34.0 °F 30% 29.95 in 10.0 mi ENE 4.6 mph - N/A   Mostly Cloudy
11:53 PM 60.1 °F 36.0 °F 41% 29.96 in 10.0 mi Calm Calm - N/A   Scattered Clouds